Address 0x50b7b7af0d53749fd3db561d4c7c887c8d89079a

Txn Hash
Block
From
To
Value [Txn Fee]
0xaaff1e10b3bb4da7acfad9ceb90bbc57030ebc50fac3f41b429dca96ab27970687834572021-05-12 18:03:3334 days 1 hr ago0x50b7b7af0d53749fd3db561d4c7c887c8d89079aOUT 0x3917ae2da199e2d029626308d557fba71f6d5e730 BNB0.00524849
0xcc6d17f687b6b7d45633f34a40785c0aa4c9bafdcf4a890338594f616087e99587834172021-05-12 18:01:3334 days 1 hr ago0xaa25aa7a19f9c426e07dee59b12f944f4d9f1dd3 IN 0x50b7b7af0d53749fd3db561d4c7c887c8d89079a2.5 BNB0.000378
0x018e8a586a36befb29100948b383bec0d2071579b6aa654aae4d625bbd7c9efc87324242021-05-10 23:06:0335 days 20 hrs ago0x50b7b7af0d53749fd3db561d4c7c887c8d89079aOUT 0x66771be8613f2e1a107fa539e50c34a13f7451c60 BNB0.00108507
0x7f7e4ef49f7cfc7bebf064909efecec60b54fff232c349e449d7aef35e21849187323182021-05-10 23:00:4535 days 20 hrs ago0x50b7b7af0d53749fd3db561d4c7c887c8d89079aOUT Contract Creation0 BNB0.01769328
0x9d0403df51ebc297cc86be3525a2cd4fc1a2beb3e0188eae32ba25b98e44ed1787323162021-05-10 23:00:3935 days 20 hrs ago0x50b7b7af0d53749fd3db561d4c7c887c8d89079aOUT Contract Creation0 BNB0.01769328
0xa8529455b5063be0fc0e2c2e61652a803b9a2605a5b3af91c5fc17467fd094a187097402021-05-10 4:11:5136 days 15 hrs ago0x50b7b7af0d53749fd3db561d4c7c887c8d89079aOUT 0xdb73dde1867843fdca5244258f2fd4b6dc7b154e0.015 BNB0.00107223
0xb08415bb54f0a466b9ab5a7e8ba36a59ba999b8103e5aed5f6b99ce51cc14cf687097222021-05-10 4:10:5736 days 15 hrs ago0x50b7b7af0d53749fd3db561d4c7c887c8d89079aOUT 0xdc9a199e13f2532c7cfafa41e458a3290fad7cec0 BNB0.00045246
0x3fdb870f7ebe0d1634c49964a7200b63a51e5f4eb15a873ab3cab8450471623987096722021-05-10 4:08:2736 days 15 hrs ago0x50b7b7af0d53749fd3db561d4c7c887c8d89079aOUT 0xb9d34a261791abeba4a6f3a1f2be84b64dc13ede0.136 BNB0.01216718
0x5db625f1f7ca158a165be117bcd7925a5eb271b979c83c60944377661493c79f87096652021-05-10 4:08:0636 days 15 hrs ago0xaa25aa7a19f9c426e07dee59b12f944f4d9f1dd3 IN 0x50b7b7af0d53749fd3db561d4c7c887c8d89079a1 BNB0.000378
0xe5aac81a827577cf89902e88af6ce8a54a25212a727529c85cb8d499553fb33b87095802021-05-10 4:03:5136 days 15 hrs ago0x50b7b7af0d53749fd3db561d4c7c887c8d89079aOUT 0xdb73dde1867843fdca5244258f2fd4b6dc7b154e0.015 BNB0.00071923
0xd71417a7daa8ffc4a27c26abbf5b404b0d7fb9329edeb3a3fd0bb71f0e0e172d87095642021-05-10 4:03:0336 days 15 hrs ago0x50b7b7af0d53749fd3db561d4c7c887c8d89079aOUT 0xc6bf84130879db72f5cd4570cbb2d0d228cbbeac0 BNB0.00030246
0x9bd6c52e0a72ed416d9a9248d2370b9d13a0655d7f2d2e48173fce13b72c5fd487086382021-05-10 3:16:4536 days 16 hrs ago0x50b7b7af0d53749fd3db561d4c7c887c8d89079aOUT Contract Creation0 BNB0.00071921
0xbc0988977ffa322824ad7c7ce86cd06bfdef8d269d70a56a75fc62340a0f134587060972021-05-10 1:09:4236 days 18 hrs ago0x50b7b7af0d53749fd3db561d4c7c887c8d89079aOUT 0xdb73dde1867843fdca5244258f2fd4b6dc7b154e0.015 BNB0.00071935
0xe51180ac6bc8c501f15e1c6568e74d35458031c09813d17704602af1d81fa3cb87060602021-05-10 1:07:5136 days 18 hrs ago0x50b7b7af0d53749fd3db561d4c7c887c8d89079aOUT 0xc6bf84130879db72f5cd4570cbb2d0d228cbbeac0 BNB0.00044958
0xf398be4c2c4ccfcb512127323d9b07e92d867b8905334bd9bd7fed3ee13d611c87022472021-05-09 21:56:5736 days 21 hrs ago0x50b7b7af0d53749fd3db561d4c7c887c8d89079aOUT 0xb9d34a261791abeba4a6f3a1f2be84b64dc13ede0.136 BNB0.01216802
0x859cebc0059296183e13bad3b0c12056d03500e07c3573cfb88f3b5a9a07576b86973722021-05-09 17:53:1237 days 1 hr ago0x50b7b7af0d53749fd3db561d4c7c887c8d89079aOUT 0x3917ae2da199e2d029626308d557fba71f6d5e730.6 BNB0.049455
0x463e99ab3320a9aded48cf41c85ecb7e926f73f8f3af7b224b76d1464ad10fc486968332021-05-09 17:26:1537 days 1 hr ago0x50b7b7af0d53749fd3db561d4c7c887c8d89079aOUT 0x01756f501c6ad4bb14c436252c78678bab2fe7f10 BNB0.0007095
0x86dec149eca9e709374b3fbee09d994b65fcd03f40000c2ef3585e56f08d464786968102021-05-09 17:25:0637 days 1 hr ago0x50b7b7af0d53749fd3db561d4c7c887c8d89079aOUT Contract Creation0 BNB0.01673149
0x74c3595952c530f8a4c2f20d9c79196967068b99fd7ae36f7f93909c744c5d1b86959182021-05-09 16:40:2237 days 2 hrs ago0x50b7b7af0d53749fd3db561d4c7c887c8d89079aOUT 0x47fe150072a1dfbbf6ed9b5b313d703ca7e655660 BNB0.0007095
0x969e7bf2a4c670f254a1511384166e5276ca138444771e6138aecbd67b2b545a86958912021-05-09 16:39:0137 days 2 hrs ago0x50b7b7af0d53749fd3db561d4c7c887c8d89079aOUT Contract Creation0 BNB0.01673149
0x0827359bb4f39a5f52230cf7cb77262c256f2134f072a273c308e0b2dd80f80c86958182021-05-09 16:35:2237 days 2 hrs ago0x50b7b7af0d53749fd3db561d4c7c887c8d89079aOUT Contract Creation0 BNB0.01673149
0x0e6e9cdc1b6f24d1486e03887b67fc3e27e823240bbc8ff83649c5919050dbe986957332021-05-09 16:31:0737 days 2 hrs ago0x50b7b7af0d53749fd3db561d4c7c887c8d89079aOUT 0xd05807c83bd989e028a7e890ee1f052167f5ea6d0 BNB0.00040938
0x50cea3f712886a98fd8c953d57f07ed8dc36c2c549c923c8e6b2fddbf23dccc786956552021-05-09 16:27:1337 days 2 hrs ago0x50b7b7af0d53749fd3db561d4c7c887c8d89079aOUT 0xd05807c83bd989e028a7e890ee1f052167f5ea6d0 BNB0.00070938
0x4f9d4016740931017f6f9053f3003b4c39add19e9deac9a3dc82abb7f2d860ad86954972021-05-09 16:19:1937 days 3 hrs ago0x50b7b7af0d53749fd3db561d4c7c887c8d89079aOUT Contract Creation0 BNB0.01673149
0xa9f2dce6413fbe0b70c8018ada16cb00bc8e95b5444dfd07a326384a0cd7ad5286940602021-05-09 15:07:2837 days 4 hrs ago0x50b7b7af0d53749fd3db561d4c7c887c8d89079aOUT Contract Creation0 BNB0.00072269
[ Download CSV Export 
Parent Txn Hash Block From To Value
Loading

Contract Name:
0 BNB

Compiler Version
0

Optimization Enabled:
0 BNB

Other Settings:
-NA-
Block Transaction Gas Used Reward
Age Block Fee Address BC Fee Address Voting Power Jailed Incoming
Block Uncle Number Difficulty Gas Used Reward
Loading